Starlink 11652

operational
NORAD ID: 63315 Int'l Des: 2025-057 Owner: SPXS Country: US Constellation: starlink
LEOCIRCULAR

About Starlink 11652

Description loading...

Live Position

Loading 3D Globe...

Upcoming Passes

Altitude History

Altitude vs Time

uPlot chart will show altitude changes over time

Two-Line Element Set

1 63315U 25057J 25259.06302591 .00377478 00000-0 27832-2 0 9996
2 63315 42.9977 237.0959 0002677 197.8171 162.2603 15.71099770 29747
Epoch: Sep 16, 2025 • Age: 18 hours

Current Status

Altitude 359.7 km
Velocity 7.69 km/s
Sub-Earth Point -27.71°S, 162.17°E
Launch Date Mar 18, 2025
Age 0.4 years
Type internet

Technical Details

Classification Payload
Mass 960.00 kg
Dry Mass 910.00 kg
Total Mass 960.00 kg
Length 0.30 m
Diameter 4.10 m
Span 29.00 m
Shape Box + pan
Manufacturer SPXS
Bus Type Starlink V2MD
Phase Status In Orbit
Owner/State SPXS/US

Large Constellations

Loading constellations...